Location: Engelmannsreuth
(49.8125°N, 11.6497°E)
Time: 18:07:52
(UTC+00:00)

NOSS 2-1 (D) - Pass Details

Date: 17 February 2020
Orbit: 450 x 1753 km, 63.3° (Epoch: 27 March)

Event Time Altitude Azimuth Distance (km) Brightness Sun altitude
Exits shadow 04:16:27 74° 326° (NW) 495 2.9 -20.7°
Drops below altitude 10° 04:20:12 10° 41° (NE) 1,780 6.5 -20.1°
Sets 04:22:37 0° 43° (NE) 2,808 7.7 -19.7°
